KA5FVT Weather Reports


Display with metric or nautical units.
time (UTC)temp
F
wind
direction
speed
MPH
gust
MPH
rain 1hr
in
rain 24hr
in
rain mn
in
humidity
%
barometer
mb
20260509025427 73 149 0.0 1.0 0.00 0.00 0.00 93 1009.3
20260509024928 73 149 0.0 1.0 0.00 0.00 0.00 93 1009.3
20260509024427 73 149 0.0 2.0 0.00 0.00 0.00 93 1009.1
20260509023927 73 149 0.0 1.0 0.00 0.00 0.00 93 1009.3
20260509023427 73 149 0.0 1.0 0.00 0.00 0.00 93 1009.2
20260509022927 73 149 0.0 2.0 0.00 0.00 0.00 93 1009.3
20260509022427 73 167 0.0 1.0 0.00 0.00 0.00 93 1009.3
20260509021928 73 167 0.0 1.0 0.00 0.00 0.00 92 1009.1
20260509021428 73 167 0.0 1.0 0.00 0.00 0.00 92 1009.0
20260509020927 73 167 0.0 1.0 0.00 0.00 0.00 92 1009.0
20260509020427 74 167 0.0 1.0 0.00 0.00 0.00 92 1008.9
20260509015927 74 167 1.0 4.0 0.00 0.00 0.00 92 1009.0
20260509015427 74 157 0.0 2.0 0.00 0.00 0.00 92 1008.7
20260509014930 74 157 0.0 1.0 0.00 0.00 0.00 92 1008.8
20260509014430 74 157 0.0 1.0 0.00 0.00 0.00 92 1008.9
20260509013927 74 157 0.0 0.0 0.00 0.00 0.00 91 1009.0
20260509013427 74 157 0.0 1.0 0.00 0.00 0.00 91 1008.9
20260509012927 74 157 0.0 1.0 0.00 0.00 0.00 91 1008.9
20260509012427 74 157 0.0 1.0 0.00 0.00 0.00 91 1009.0
20260509011927 74 157 0.0 1.0 0.00 0.00 0.00 91 1008.9
20260509011427 74 157 1.0 2.0 0.00 0.00 0.00 91 1008.8
20260509010927 74 158 1.0 1.0 0.00 0.00 0.00 91 1008.7
20260509010428 74 157 0.0 1.0 0.00 0.00 0.00 91 1008.7
20260509005927 74 157 0.0 1.0 0.00 0.00 0.00 91 1008.5
20260509005430 74 157 0.0 2.0 0.00 0.00 0.00 91 1008.4
20260509004927 74 173 2.0 2.0 0.00 0.00 0.00 90 1008.5
20260509004427 74 175 0.0 1.0 0.00 0.00 0.00 90 1008.6
20260509003927 74 175 0.0 2.0 0.00 0.00 0.00 90 1008.6
20260509003427 74 175 0.0 0.0 0.00 0.00 0.00 90 1008.5
20260509002928 74 175 0.0 1.0 0.00 0.00 0.00 90 1008.6
20260509002430 74 175 1.0 1.0 0.00 0.00 0.00 90 1008.6
20260509001927 74 175 0.0 1.0 0.00 0.00 0.00 90 1008.7
20260509001427 74 175 0.0 1.0 0.00 0.00 0.00 89 1008.8
20260509000930 74 175 0.0 1.0 0.00 0.00 0.00 89 1008.9
20260509000427 74 175 0.0 2.0 0.00 0.00 0.00 89 1008.9
20260508235927 74 169 1.0 1.0 0.00 0.00 0.00 89 1008.9
20260508235428 74 169 0.0 1.0 0.00 0.00 0.00 89 1008.8
20260508234927 74 169 0.0 2.0 0.00 0.00 0.00 89 1008.9
20260508234430 74 169 0.0 2.0 0.00 0.00 0.00 89 1009.0
20260508233930 75 126 1.0 2.0 0.00 0.00 0.00 88 1009.1
20260508233430 75 161 0.0 4.0 0.00 0.00 0.00 88 1009.0
20260508232927 75 177 0.0 2.0 0.00 0.00 0.00 88 1009.0
20260508232427 75 177 1.0 1.0 0.00 0.00 0.00 88 1008.8
20260508231928 75 178 0.0 1.0 0.00 0.00 0.00 88 1009.0
20260508231427 75 178 0.0 5.0 0.00 0.00 0.00 88 1009.1
20260508230927 75 157 1.0 4.0 0.00 0.00 0.00 87 1008.9
20260508230427 75 157 0.0 2.0 0.00 0.00 0.00 87 1008.9
20260508225927 75 157 0.0 1.0 0.00 0.00 0.00 87 1008.9
20260508225427 75 157 1.0 2.0 0.00 0.00 0.00 87 1008.8
20260508224927 76 152 0.0 4.0 0.00 0.00 0.00 86 1008.7
20260508224428 76 161 1.0 1.0 0.00 0.00 0.00 86 1008.8
20260508223927 76 160 0.0 4.0 0.00 0.00 0.00 86 1008.8
20260508223427 76 167 0.0 4.0 0.00 0.00 0.00 86 1008.8
20260508222927 76 173 0.0 4.0 0.00 0.00 0.00 85 1008.8
20260508222427 76 173 0.0 1.0 0.00 0.00 0.00 86 1008.8
20260508221927 76 173 0.0 2.0 0.00 0.00 0.00 85 1008.9
20260508221428 76 174 0.0 4.0 0.00 0.00 0.00 85 1008.9
20260508220927 76 162 1.0 2.0 0.00 0.00 0.00 85 1009.0
20260508220427 76 162 1.0 1.0 0.00 0.00 0.00 85 1009.0
20260508215930 76 163 1.0 2.0 0.00 0.00 0.00 84 1009.0
20260508215427 76 163 1.0 1.0 0.00 0.00 0.00 84 1008.9
20260508214927 76 161 1.0 1.0 0.00 0.00 0.00 84 1008.9
20260508214427 76 161 0.0 1.0 0.00 0.00 0.00 83 1008.9
20260508213927 77 173 1.0 1.0 0.00 0.00 0.00 83 1009.2
20260508213427 77 173 0.0 0.0 0.00 0.00 0.00 83 1009.4
20260508212927 77 173 0.0 1.0 0.00 0.00 0.00 83 1009.5
20260508212427 77 173 0.0 1.0 0.00 0.00 0.00 82 1009.4
20260508211927 77 173 0.0 0.0 0.00 0.00 0.00 83 1009.4
20260508211427 77 173 0.0 2.0 0.00 0.00 0.00 82 1009.3
20260508210927 77 173 0.0 2.0 0.00 0.00 0.00 83 1009.3
20260508210427 77 173 1.0 2.0 0.00 0.00 0.00 82 1009.3
20260508205927 77 173 1.0 1.0 0.00 0.00 0.00 82 1009.5
20260508205427 77 173 0.0 1.0 0.00 0.00 0.00 82 1009.5
20260508204927 77 173 0.0 1.0 0.00 0.00 0.00 82 1009.5
20260508204428 77 173 0.0 1.0 0.00 0.00 0.00 82 1009.6
20260508203930 77 173 0.0 0.0 0.00 0.00 0.00 81 1009.6
20260508203427 77 173 0.0 0.0 0.00 0.00 0.00 81 1009.6
20260508202928 77 173 0.0 2.0 0.00 0.00 0.00 81 1009.6
20260508202428 77 173 0.0 2.0 0.00 0.00 0.00 80 1009.4
20260508201930 77 173 1.0 2.0 0.00 0.00 0.00 81 1009.5
20260508201427 77 173 0.0 0.0 0.00 0.00 0.00 81 1009.7
20260508200930 77 173 0.0 2.0 0.00 0.00 0.00 81 1009.6
20260508200427 77 173 0.0 2.0 0.00 0.00 0.00 82 1009.7
20260508195927 76 173 1.0 1.0 0.00 0.00 0.00 83 1009.8
20260508195427 76 173 0.0 1.0 0.00 0.00 0.00 82 1009.9
20260508194927 76 173 0.0 1.0 0.00 0.00 0.00 83 1010.0
20260508194427 75 173 0.0 2.0 0.00 0.00 0.00 82 1010.0
20260508193927 75 173 0.0 1.0 0.00 0.00 0.00 82 1010.1
20260508193428 75 173 1.0 2.0 0.00 0.00 0.00 81 1010.3
20260508192927 75 173 0.0 2.0 0.00 0.00 0.00 81 1010.6
20260508192427 75 174 0.0 1.0 0.00 0.00 0.00 81 1010.8
20260508191927 75 174 0.0 0.0 0.00 0.00 0.00 82 1010.9
20260508191427 75 174 0.0 1.0 0.00 0.00 0.00 81 1010.8
20260508190927 75 174 0.0 1.0 0.00 0.00 0.00 81 1010.8
20260508190427 75 174 0.0 1.0 0.00 0.00 0.00 82 1010.5
20260508185931 75 174 1.0 1.0 0.00 0.00 0.00 82 1010.6
20260508185427 75 174 0.0 1.0 0.00 0.00 0.00 83 1010.6
20260508184927 74 174 0.0 2.0 0.00 0.00 0.00 83 1010.6
20260508184427 74 174 2.0 2.0 0.00 0.00 0.00 83 1010.6
20260508183931 74 146 0.0 2.0 0.00 0.00 0.00 83 1010.7
20260508183427 74 134 0.0 1.0 0.00 0.00 0.00 84 1010.7
20260508182927 73 134 0.0 2.0 0.00 0.00 0.00 83 1010.9
20260508182427 73 133 0.0 1.0 0.00 0.00 0.00 84 1010.7
20260508181927 73 133 0.0 2.0 0.00 0.00 0.00 83 1010.7
20260508181427 73 153 0.0 2.0 0.00 0.00 0.00 83 1010.7
20260508180927 73 153 0.0 2.0 0.00 0.00 0.00 84 1010.8
20260508180427 73 163 1.0 4.0 0.00 0.00 0.00 84 1010.9
20260508175927 72 178 0.0 1.0 0.00 0.00 0.00 86 1010.9
20260508175430 72 178 0.0 1.0 0.00 0.00 0.00 85 1011.3
20260508174928 72 178 0.0 2.0 0.00 0.00 0.00 85 1011.4
20260508174427 72 178 0.0 0.0 0.00 0.00 0.00 85 1011.5
20260508173927 71 178 0.0 0.0 0.00 0.00 0.00 85 1011.5
20260508173430 71 178 0.0 1.0 0.00 0.00 0.00 85 1011.5
20260508172927 71 178 0.0 2.0 0.00 0.00 0.00 85 1011.8
20260508172428 71 178 0.0 0.0 0.00 0.00 0.00 85 1011.8
20260508171927 71 178 0.0 0.0 0.00 0.00 0.00 85 1011.9
20260508171427 71 178 0.0 2.0 0.00 0.00 0.00 84 1012.0
20260508170927 71 179 0.0 1.0 0.00 0.00 0.00 85 1011.8
20260508170427 71 179 0.0 1.0 0.00 0.00 0.00 85 1011.7
20260508165927 71 178 0.0 1.0 0.00 0.00 0.00 85 1011.8
20260508165427 71 179 0.0 4.0 0.00 0.00 0.00 85 1011.8
20260508164927 70 182 1.0 2.0 0.00 0.00 0.00 86 1011.7
20260508164430 70 183 0.0 1.0 0.00 0.00 0.00 86 1011.7
20260508163928 70 183 0.0 2.0 0.00 0.00 0.00 86 1011.9
20260508163427 70 184 0.0 4.0 0.00 0.00 0.00 85 1011.9
20260508162927 70 148 1.0 4.0 0.00 0.00 0.00 85 1012.0
20260508162427 70 158 0.0 1.0 0.00 0.00 0.00 85 1012.2
20260508161930 70 158 1.0 1.0 0.00 0.00 0.00 85 1012.3
20260508161427 70 158 0.0 1.0 0.00 0.00 0.00 85 1012.4
20260508160928 70 158 0.0 2.0 0.00 0.00 0.00 85 1012.7
20260508160427 70 158 1.0 2.0 0.00 0.00 0.00 85 1012.5
20260508155927 70 158 1.0 4.0 0.00 0.00 0.00 85 1012.4
20260508155427 70 159 0.0 1.0 0.00 0.00 0.00 85 1012.4
20260508154930 70 159 0.0 1.0 0.00 0.00 0.00 85 1012.5
20260508154427 70 159 0.0 1.0 0.00 0.00 0.00 85 1012.7
20260508153930 70 159 1.0 2.0 0.00 0.00 0.00 85 1012.7
20260508153430 70 159 0.0 1.0 0.00 0.00 0.00 85 1012.8
20260508152927 70 159 0.0 2.0 0.00 0.00 0.00 85 1012.8
20260508152427 70 161 2.0 2.0 0.00 0.00 0.00 85 1013.0
20260508151927 69 159 0.0 2.0 0.00 0.00 0.00 85 1012.8
20260508151430 69 159 0.0 1.0 0.00 0.00 0.00 86 1012.7
20260508150928 69 159 1.0 1.0 0.00 0.00 0.00 85 1012.8
20260508150427 69 159 0.0 1.0 0.00 0.00 0.00 85 1012.8
20260508145930 69 159 0.0 2.0 0.00 0.00 0.00 85 1012.9
20260508145427 69 160 0.0 1.0 0.00 0.00 0.00 84 1013.0
20260508144927 69 160 1.0 2.0 0.00 0.00 0.00 84 1013.0
20260508144427 69 152 0.0 2.0 0.00 0.00 0.00 84 1013.1
20260508143927 69 153 1.0 2.0 0.00 0.00 0.00 84 1013.0
20260508143427 69 152 0.0 1.0 0.00 0.00 0.00 84 1013.0
20260508142927 69 152 1.0 1.0 0.00 0.00 0.00 84 1013.2
20260508142427 69 153 0.0 2.0 0.00 0.00 0.00 84 1013.4
20260508141928 69 161 0.0 1.0 0.00 0.00 0.00 84 1013.2
20260508141427 69 161 0.0 2.0 0.00 0.00 0.00 83 1013.0
20260508140930 69 161 1.0 1.0 0.00 0.00 0.00 84 1013.0
20260508140427 69 161 0.0 1.0 0.00 0.00 0.00 84 1013.1
20260508135927 69 161 0.0 1.0 0.00 0.00 0.00 84 1013.0
20260508135427 69 153 1.0 1.0 0.00 0.00 0.00 84 1012.9
20260508134927 69 153 0.0 1.0 0.00 0.00 0.00 84 1012.8
20260508134428 68 153 0.0 1.0 0.00 0.00 0.00 84 1012.8
20260508133930 68 153 0.0 1.0 0.00 0.00 0.00 85 1012.8
20260508133427 68 153 0.0 1.0 0.00 0.00 0.00 85 1012.8
20260508132927 68 153 0.0 0.0 0.00 0.00 0.00 86 1012.5
20260508132427 68 153 0.0 1.0 0.00 0.00 0.00 86 1012.5
20260508131930 68 153 0.0 0.0 0.00 0.00 0.00 86 1012.7
20260508131430 67 153 0.0 1.0 0.00 0.00 0.00 86 1012.6
20260508130928 67 153 1.0 1.0 0.00 0.00 0.00 86 1012.6
20260508130427 67 153 0.0 1.0 0.00 0.00 0.00 86 1012.8
20260508125927 67 153 0.0 2.0 0.00 0.00 0.00 86 1012.6
20260508125427 67 153 0.0 1.0 0.00 0.00 0.00 87 1012.6
20260508124927 67 153 1.0 2.0 0.00 0.00 0.00 87 1012.6
20260508124427 67 153 0.0 2.0 0.00 0.00 0.00 86 1012.2
20260508123928 67 153 0.0 2.0 0.00 0.00 0.00 86 1012.2
20260508123427 67 154 1.0 2.0 0.00 0.00 0.00 86 1012.1
20260508122927 67 150 1.0 2.0 0.00 0.00 0.00 86 1012.2
20260508122427 67 119 0.0 1.0 0.00 0.00 0.00 86 1012.6
20260508121930 68 119 0.0 0.0 0.00 0.00 0.00 86 1012.9
20260508121427 68 119 0.0 0.0 0.00 0.00 0.00 86 1012.8
20260508120930 68 119 0.0 0.0 0.00 0.00 0.00 85 1013.0
20260508120427 68 119 0.0 1.0 0.00 0.00 0.00 85 1013.2
20260508115927 68 119 0.0 1.0 0.00 0.00 0.00 84 1013.4
20260508115427 68 119 1.0 1.0 0.00 0.00 0.00 84 1013.2
20260508114927 69 119 0.0 0.0 0.00 0.00 0.00 84 1013.2
20260508114427 69 119 0.0 0.0 0.00 0.00 0.00 84 1013.2
20260508113930 69 119 0.0 0.0 0.00 0.00 0.00 84 1013.1
20260508113427 69 119 0.0 0.0 0.00 0.00 0.00 83 1013.2
20260508112928 69 119 0.0 1.0 0.00 0.00 0.00 83 1013.3
20260508112427 69 119 0.0 2.0 0.00 0.00 0.00 83 1013.1
20260508111927 69 119 0.0 1.0 0.00 0.00 0.00 83 1012.9
20260508111427 69 119 0.0 0.0 0.00 0.00 0.00 83 1012.5
20260508110927 69 119 0.0 1.0 0.00 0.00 0.00 83 1012.4
20260508110427 69 119 0.0 0.0 0.00 0.00 0.00 83 1012.4
20260508105927 69 119 0.0 2.0 0.00 0.00 0.00 83 1012.2
20260508105428 69 120 0.0 1.0 0.00 0.00 0.00 83 1011.9
20260508104927 69 120 0.0 1.0 0.00 0.00 0.00 83 1011.9
20260508104430 69 120 0.0 0.0 0.00 0.00 0.00 83 1012.0
20260508103927 69 120 0.0 0.0 0.00 0.00 0.00 83 1012.2
20260508103427 69 120 0.0 0.0 0.00 0.00 0.00 83 1012.7
20260508102927 69 120 0.0 0.0 0.00 0.00 0.00 83 1013.0
20260508102427 69 120 0.0 0.0 0.00 0.00 0.00 82 1013.1
20260508101930 69 120 0.0 1.0 0.00 0.00 0.00 82 1013.0
20260508101428 69 120 1.0 1.0 0.00 0.00 0.00 82 1012.7
20260508100930 69 120 0.0 1.0 0.00 0.00 0.00 82 1012.5
20260508100430 69 120 0.0 1.0 0.00 0.00 0.00 82 1012.1
20260508095927 69 120 0.0 1.0 0.00 0.00 0.00 82 1012.2
20260508095427 69 21 0.0 1.0 0.00 0.00 0.00 82 1012.6
20260508094927 69 21 0.0 0.0 0.00 0.00 0.00 81 1013.0
20260508094427 69 21 0.0 0.0 0.00 0.00 0.00 81 1013.0
20260508093927 69 21 0.0 2.0 0.00 0.00 0.00 81 1012.8
20260508093427 69 21 0.0 1.0 0.00 0.00 0.00 81 1012.8
20260508092930 69 21 0.0 1.0 0.00 0.00 0.00 81 1012.7
20260508092427 69 21 0.0 1.0 0.00 0.00 0.00 80 1012.6
20260508091927 69 21 0.0 1.0 0.00 0.00 0.00 80 1012.2
20260508091427 69 21 0.0 2.0 0.00 0.00 0.00 80 1011.9
20260508090928 69 0 0.0 1.0 0.00 0.00 0.00 80 1011.9
20260508090427 69 0 1.0 1.0 0.00 0.00 0.00 79 1012.1
20260508085927 69 22 0.0 1.0 0.00 0.00 0.00 79 1012.2
20260508085427 69 22 0.0 1.0 0.00 0.00 0.00 79 1012.2
20260508084927 69 22 0.0 1.0 0.00 0.00 0.00 79 1012.3
20260508084427 69 22 0.0 1.0 0.00 0.00 0.00 79 1012.6
20260508083930 69 22 0.0 1.0 0.00 0.00 0.00 79 1012.7
20260508083427 69 22 0.0 0.0 0.00 0.00 0.00 79 1012.7
20260508082927 69 22 0.0 0.0 0.00 0.00 0.00 79 1012.9
20260508082427 69 22 0.0 0.0 0.00 0.00 0.00 78 1012.8
20260508081927 69 22 0.0 1.0 0.00 0.00 0.00 79 1012.7
20260508081427 69 22 0.0 1.0 0.00 0.00 0.00 78 1012.5
20260508080927 69 22 0.0 0.0 0.00 0.00 0.00 78 1012.4
20260508080431 69 22 0.0 1.0 0.00 0.00 0.00 78 1012.4
20260508075927 69 22 0.0 1.0 0.00 0.00 0.00 78 1012.5
20260508075427 69 22 0.0 1.0 0.00 0.00 0.00 78 1012.7
20260508074930 69 22 0.0 1.0 0.00 0.00 0.00 78 1013.1
20260508074427 69 22 0.0 0.0 0.00 0.00 0.00 78 1013.1
20260508073927 69 22 0.0 0.0 0.00 0.00 0.00 78 1013.1
20260508073427 69 22 0.0 1.0 0.00 0.00 0.00 78 1013.1
20260508072927 69 22 0.0 0.0 0.00 0.00 0.00 78 1013.2
20260508072427 69 22 0.0 1.0 0.00 0.00 0.00 78 1013.3
20260508071928 70 28 0.0 1.0 0.00 0.00 0.00 79 1013.2
20260508071427 70 28 1.0 1.0 0.00 0.00 0.00 79 1013.1
20260508070927 70 28 0.0 1.0 0.00 0.00 0.00 78 1013.0
20260508070427 70 28 0.0 0.0 0.00 0.00 0.00 78 1013.1
20260508065930 70 28 0.0 0.0 0.00 0.00 0.00 78 1013.3
20260508065427 70 29 0.0 0.0 0.00 0.00 0.00 78 1013.3
20260508064927 70 29 0.0 0.0 0.00 0.00 0.00 78 1013.1
20260508064430 70 28 0.0 0.0 0.00 0.00 0.00 78 1013.2
20260508063927 70 28 0.0 0.0 0.00 0.00 0.00 79 1013.4
20260508063427 70 28 0.0 1.0 0.00 0.00 0.00 78 1013.2
20260508062930 70 28 1.0 0.0 0.00 0.00 0.00 79 1013.0
20260508062427 70 28 0.0 0.0 0.00 0.00 0.00 78 1013.1
20260508061927 70 28 0.0 0.0 0.00 0.00 0.00 78 1013.1
20260508061427 70 28 0.0 0.0 0.00 0.00 0.00 78 1013.0
20260508060927 70 29 0.0 1.0 0.00 0.00 0.00 78 1013.0
20260508060430 70 29 0.0 1.0 0.00 0.00 0.00 78 1013.0
20260508055930 70 28 0.0 0.0 0.00 0.00 0.00 78 1013.1
20260508055427 70 28 0.0 0.0 0.00 0.00 0.00 77 1013.3
20260508054927 70 28 0.0 1.0 0.00 0.00 0.00 77 1013.2
20260508054427 70 28 0.0 1.0 0.00 0.00 0.00 77 1013.1
20260508053927 70 28 0.0 1.0 0.00 0.00 0.00 77 1012.9
20260508053427 70 29 1.0 1.0 0.00 0.00 0.00 77 1012.7
20260508052927 70 25 0.0 1.0 0.00 0.00 0.00 77 1012.7
20260508052427 70 25 0.0 0.0 0.00 0.00 0.00 77 1012.9
20260508051927 70 25 0.0 0.0 0.00 0.00 0.00 77 1013.1
20260508051427 70 25 0.0 0.0 0.00 0.00 0.00 77 1013.0
20260508050927 70 25 0.0 0.0 0.00 0.00 0.00 75 1013.0
20260508050427 70 25 0.0 0.0 0.00 0.00 0.00 75 1013.0
20260508045927 70 25 0.0 0.0 0.00 0.00 0.00 75 1013.1
20260508045427 70 25 0.0 0.0 0.00 0.00 0.00 74 1013.2
20260508044927 70 25 0.0 1.0 0.00 0.00 0.00 74 1013.3
20260508044427 71 25 0.0 0.0 0.00 0.00 0.00 74 1013.3
20260508043930 71 25 0.0 0.0 0.00 0.00 0.00 74 1013.5
20260508043427 71 25 0.0 0.0 0.00 0.00 0.00 74 1013.6
20260508042930 71 25 0.0 1.0 0.00 0.00 0.00 73 1013.4
20260508042427 71 25 0.0 1.0 0.00 0.00 0.00 73 1013.5
20260508041927 71 25 1.0 1.0 0.00 0.00 0.00 73 1013.4
20260508041427 71 25 0.0 0.0 0.00 0.00 0.00 72 1013.0
20260508040930 71 25 0.0 0.0 0.00 0.00 0.00 72 1013.1
20260508040427 71 25 0.0 1.0 0.00 0.00 0.00 72 1013.1
20260508035927 71 25 0.0 1.0 0.00 0.00 0.00 71 1013.3
20260508035428 71 32 0.0 2.0 0.00 0.00 0.00 71 1013.2
20260508034927 71 32 2.0 2.0 0.00 0.00 0.00 71 1012.9
20260508034427 71 278 0.0 1.0 0.00 0.00 0.00 70 1012.9
20260508033930 72 278 0.0 1.0 0.00 0.00 0.00 70 1012.9
20260508033430 72 278 0.0 1.0 0.00 0.00 0.00 70 1013.1
20260508032927 72 278 0.0 1.0 0.00 0.00 0.00 69 1013.4
20260508032427 72 278 0.0 0.0 0.00 0.00 0.00 70 1013.5
20260508031928 72 278 0.0 1.0 0.00 0.00 0.00 69 1013.5
20260508031427 72 278 0.0 1.0 0.00 0.00 0.00 70 1013.6
20260508030927 72 278 0.0 0.0 0.00 0.00 0.00 70 1013.6
20260508030427 72 278 1.0 1.0 0.00 0.00 0.00 69 1013.5
20260508025927 72 278 0.0 0.0 0.00 0.00 0.00 69 1013.5